Weather History for KCIN - January, 2012

Change the Weather History Date:

Sunday, January 15, 2012

  Actual Average Record
Temperature  
Mean Temperature 36 °F -  
Max Temperature 53 °F 29 °F 63 °F (1990)
Min Temperature 19 °F 8 °F -21 °F (1972)
Degree Days  
Heating Degree Days 29    
Moisture  
Dew Point 21 °F    
Average Humidity 59    
Maximum Humidity 86    
Minimum Humidity 28    
Precipitation  
Precipitation 0.00 in - - ()
Sea Level Pressure  
Sea Level Pressure 29.88 in    
Wind  
Wind Speed 10 mph (South)    
Max Wind Speed 30 mph    
Max Gust Speed 38 mph    
Visibility 10 miles    
Events      
Averages and records for this station are not official NWS values.
T = Trace of Precipitation, MM = Missing Value Source: NWS Daily Summary

Daily Weather History Graph

Daily Weather History Graph

Search for Another Location

Airport or City:

Trip Planner

Search our weather history database for the weather conditions in past years. The results will help you decide how hot, cold, wet, or windy it might be!

Date:

Astronomy

Jan. 15, 2012 Rise Set
Actual Time 7:45 AM CST 5:12 PM CST
Civil Twilight 7:14 AM CST 5:43 PM CST
Nautical Twilight 6:39 AM CST 6:17 PM CST
Astronomical Twilight 6:06 AM CST 6:51 PM CST
Moon No Moon Rise 10:55 AM CST (1/15)
Length of Visible Light 10h 28m
Length of Day
9h 27m
Waning Gibbous, 57% of the Moon is Illuminated
Jan 15
Waning Gibbous
Jan 16
Last Quarter
Jan 23
New
Jan 30
First Quarter
Feb 7
Full

Hourly Weather History & Observations

Time (CST) Temp. Windchill Dew Point Humidity Pressure Visibility Wind Dir Wind Speed Gust Speed Precip Events Conditions
12:15 AM 19.4 °F - 14.0 °F 80% 30.12 in 10.0 mi Calm Calm - N/A   Clear
12:35 AM 23.0 °F 18.4 °F 17.6 °F 80% 30.11 in 10.0 mi South 3.5 mph - N/A   Clear
12:55 AM 21.2 °F - 15.8 °F 80% 30.11 in 10.0 mi Calm Calm - N/A   Clear
1:15 AM 19.4 °F - 15.8 °F 86% 30.11 in 10.0 mi Calm Calm - N/A   Clear
1:35 AM 21.2 °F 16.4 °F 15.8 °F 80% 30.10 in 10.0 mi SSE 3.5 mph - N/A   Clear
1:55 AM 21.2 °F 12.6 °F 17.6 °F 86% 30.09 in 10.0 mi SSE 6.9 mph - N/A   Clear
2:15 AM 26.6 °F 18.2 °F 19.4 °F 74% 30.09 in 10.0 mi SSE 8.1 mph - N/A   Clear
2:35 AM 24.8 °F 17.9 °F 17.6 °F 74% 30.08 in 10.0 mi SE 5.8 mph - N/A   Clear
2:55 AM 24.8 °F 19.1 °F 17.6 °F 74% 30.08 in 10.0 mi SSE 4.6 mph - N/A   Clear
3:35 AM 24.8 °F 19.1 °F 17.6 °F 74% 30.06 in 10.0 mi ESE 4.6 mph - N/A   Scattered Clouds
4:15 AM 24.8 °F - 17.6 °F 74% 30.04 in 10.0 mi Calm Calm - N/A   Clear
4:35 AM 24.8 °F 16.1 °F 17.6 °F 74% 30.04 in 10.0 mi SSE 8.1 mph - N/A   Clear
4:55 AM 21.2 °F 12.6 °F 17.6 °F 86% 30.03 in 10.0 mi SSE 6.9 mph - N/A   Clear
5:15 AM 21.2 °F 10.1 °F 15.8 °F 80% 30.02 in 10.0 mi SSE 10.4 mph - N/A   Clear
5:35 AM 21.2 °F 10.9 °F 15.8 °F 80% 30.01 in 10.0 mi SSE 9.2 mph - N/A   Clear
6:15 AM 23.0 °F 12.4 °F 17.6 °F 80% 30.00 in 10.0 mi ESE 10.4 mph - N/A   Clear
6:35 AM 24.8 °F 15.3 °F 17.6 °F 74% 30.00 in 10.0 mi SE 9.2 mph - N/A   Clear
6:55 AM 23.0 °F 13.1 °F 17.6 °F 80% 29.99 in 10.0 mi ESE 9.2 mph - N/A   Clear
7:15 AM 23.0 °F 11.1 °F 17.6 °F 80% 29.98 in 10.0 mi ESE 12.7 mph - N/A   Clear
7:35 AM 21.2 °F 12.6 °F 15.8 °F 80% 29.98 in 10.0 mi SSE 6.9 mph - N/A   Clear
7:55 AM 21.2 °F 13.6 °F 15.8 °F 80% 29.98 in 10.0 mi SSE 5.8 mph - N/A   Clear
8:15 AM 23.0 °F 13.1 °F 17.6 °F 80% 29.97 in 10.0 mi SSE 9.2 mph - N/A   Clear
8:35 AM 24.8 °F 14.6 °F 19.4 °F 80% 29.96 in 10.0 mi SSE 10.4 mph - N/A   Clear
8:55 AM 32.0 °F 21.6 °F 23.0 °F 69% 29.95 in 10.0 mi SSE 15.0 mph - N/A   Clear
9:15 AM 33.8 °F 22.2 °F 24.8 °F 70% 29.94 in 10.0 mi SSE 20.7 mph - N/A   Clear
9:35 AM 37.4 °F 26.6 °F 24.8 °F 60% 29.93 in 10.0 mi SSE 21.9 mph 28.8 mph N/A   Clear
9:55 AM 37.4 °F 26.4 °F 24.8 °F 60% 29.91 in 10.0 mi SSE 23.0 mph 29.9 mph N/A   Clear
10:15 AM 39.2 °F 29.3 °F 24.8 °F 56% 29.91 in 10.0 mi South 20.7 mph 31.1 mph N/A   Clear
10:35 AM 42.8 °F 33.3 °F 26.6 °F 53% 29.90 in 10.0 mi South 24.2 mph - N/A   Clear
11:15 AM 46.4 °F 37.2 °F 24.8 °F 43% 29.87 in 10.0 mi South 29.9 mph 38.0 mph N/A   Clear
11:35 AM 46.4 °F 37.5 °F 24.8 °F 43% 29.86 in 10.0 mi South 27.6 mph 38.0 mph N/A   Clear
11:55 AM 48.2 °F - 24.8 °F 40% 29.84 in 10.0 mi South 27.6 mph 36.8 mph N/A   Clear
12:15 PM 48.2 °F - 24.8 °F 40% 29.82 in 10.0 mi South 26.5 mph 33.4 mph N/A   Clear
12:35 PM 50.0 °F - 24.8 °F 37% 29.80 in 10.0 mi South 27.6 mph 33.4 mph N/A   Clear
12:55 PM 51.8 °F - 23.0 °F 33% 29.78 in 10.0 mi SSW 25.3 mph 33.4 mph N/A   Clear
1:15 PM 51.8 °F - 23.0 °F 33% 29.77 in 10.0 mi SSW 25.3 mph 29.9 mph N/A   Clear
1:35 PM 51.8 °F - 23.0 °F 33% 29.76 in 10.0 mi South 23.0 mph 27.6 mph N/A   Clear
1:55 PM 51.8 °F - 23.0 °F 33% 29.75 in 10.0 mi SSW 18.4 mph 26.5 mph N/A   Clear
2:15 PM 53.6 °F - 21.2 °F 28% 29.75 in 10.0 mi SSW 24.2 mph 28.8 mph N/A   Clear
2:35 PM 51.8 °F - 21.2 °F 30% 29.74 in 10.0 mi South 23.0 mph 27.6 mph N/A   Clear
2:55 PM 51.8 °F - 23.0 °F 33% 29.75 in 10.0 mi South 21.9 mph - N/A   Clear
3:15 PM 53.6 °F - 23.0 °F 30% 29.74 in 10.0 mi South 19.6 mph 26.5 mph N/A   Clear
3:35 PM 51.8 °F - 23.0 °F 33% 29.74 in 10.0 mi SSW 18.4 mph 23.0 mph N/A   Clear
3:55 PM 51.8 °F - 23.0 °F 33% 29.74 in 10.0 mi South 16.1 mph - N/A   Clear
4:15 PM 51.8 °F - 23.0 °F 33% 29.74 in 10.0 mi SSW 16.1 mph 19.6 mph N/A   Clear
4:35 PM 48.2 °F - 24.8 °F 40% 29.74 in 10.0 mi South 12.7 mph - N/A   Clear
4:55 PM 46.4 °F 42.4 °F 24.8 °F 43% 29.73 in 10.0 mi South 8.1 mph - N/A   Clear
5:15 PM 42.8 °F 38.0 °F 24.8 °F 49% 29.72 in 10.0 mi South 8.1 mph - N/A   Clear
5:35 PM 39.2 °F 33.0 °F 24.8 °F 56% 29.72 in 10.0 mi South 9.2 mph - N/A   Clear
5:55 PM 35.6 °F 31.7 °F 21.2 °F 56% 29.71 in 10.0 mi SSE 4.6 mph - N/A   Clear
6:15 PM 33.8 °F 29.6 °F 21.2 °F 60% 29.71 in 10.0 mi SE 4.6 mph - N/A   Clear
6:35 PM 33.8 °F 28.6 °F 21.2 °F 60% 29.71 in 10.0 mi SSE 5.8 mph - N/A   Clear
6:55 PM 32.0 °F 24.2 °F 21.2 °F 64% 29.70 in 10.0 mi South 9.2 mph - N/A   Clear
7:15 PM 39.2 °F 32.5 °F 24.8 °F 56% 29.70 in 10.0 mi South 10.4 mph - N/A   Clear
7:35 PM 42.8 °F 36.2 °F 24.8 °F 49% 29.70 in 10.0 mi SSW 12.7 mph - N/A   Clear
7:55 PM 42.8 °F 35.4 °F 24.8 °F 49% 29.70 in 10.0 mi SSW 15.0 mph - N/A   Clear
8:15 PM 44.6 °F 37.8 °F 24.8 °F 46% 29.70 in 10.0 mi SSW 15.0 mph - N/A   Clear
8:35 PM 44.6 °F 37.4 °F 23.0 °F 43% 29.70 in 10.0 mi South 16.1 mph - N/A   Clear
9:15 PM 42.8 °F 35.1 °F 23.0 °F 46% 29.70 in 10.0 mi SSW 16.1 mph - N/A   Clear
9:35 PM 42.8 °F 35.1 °F 23.0 °F 46% 29.71 in 10.0 mi SSW 16.1 mph - N/A   Clear
9:55 PM 44.6 °F 36.9 °F 23.0 °F 43% 29.70 in 10.0 mi SSW 18.4 mph - N/A   Clear
10:15 PM 44.6 °F 37.2 °F 21.2 °F 39% 29.71 in 10.0 mi SW 17.3 mph - N/A   Clear
10:35 PM 44.6 °F 37.4 °F 23.0 °F 43% 29.72 in 10.0 mi SW 16.1 mph - N/A   Clear
10:55 PM 42.8 °F 35.8 °F 23.0 °F 46% 29.72 in 10.0 mi SSW 13.8 mph - N/A   Clear
11:35 PM 42.8 °F 35.8 °F 23.0 °F 46% 29.71 in 10.0 mi SSW 13.8 mph - N/A   Clear